www.pogodaiklimat.ru

Погода и климат >> Архив погоды >> Россия >> город Севастополь >> Севастополь


АРХИВ ПОГОДЫ в Севастополе

Время (UTC), дата Ветер
(напр.,м/с)
 
Видим.   Явления Облачность Т
(С)
Тd
(С)
f
(%)
Тe
(С)
Тes
(С)
Комфортность P
(гПа)
Po
(гПа)
Тmin
(С)
Tmax
(С)
R
(мм)
R24
(мм)
S
(см)
12 11.02 ЮВ 12-14
{14}
20 км 9/6 600 м
[Cu med, cong Cs]
+8.5 +3.7 72 +3 +3 по сезону 1015.7 1015.2
15 11.02 ЮВ 14-16
{16}
20 км 9/3 600 м
[Cu med, cong Ac cast Ci fib]
+7.9 +2.9 71 +2 +2 по сезону 1014.7 1014.2
18 11.02 ЮВ 14-16
{16}
20 км 8/0
[Ac cast]
+8.3 +4.5 77 +2 +2 по сезону 1013.6 1013.1 +9.2
21 11.02 ЮВ 12-14
{14}
20 км 4/0
[Ci fib]
+8.6 +4.4 75 +3 +3 по сезону 1013.0 1012.5
00 12.02 ЮВ 10-12
{12}
20 км 10/0
[Ac und]
+10.1 +1.6 56 +6 +6 тепло 1011.9 1011.4
03 12.02 ЮВ 10 20 км 8/0
[Ac cast Ci fib]
+10.3 +2.4 58 +6 +6 тепло 1010.6 1010.1 +7.5
06 12.02 Ю 6 20 км 10/5 1000 м
[Sc Ac As]
+11.3 +1.5 51 +9 +9 тепло 1011.4 1010.7 +8.7
09 12.02 Ю 5 20 км 10/8 1000 м
[Sc Ac lent]
+13.4 +3.5 51 +12 +12 тепло 1011.4 1010.7
12 12.02 ЮВ 12 4000 м слаб. ливневой дождь 10/10 300 м
[Cb cap]
+11.1 +5.7 69 +7 +7 по сезону 1010.0 1009.5
15 12.02 ЮВ 14 10 км слаб. ливневой дождь 10/8 600 м
[Cb cap Ac und]
+11.7 +5.5 66 +7 +7 тепло 1010.2 1009.7 0.1
18 12.02 Ю 8-12
{14}
4000 м слаб. ливневой дождь 10/10 300 м
[Cb cap]
+10.5 +7.6 82 +7 +7 тепло 1012.7 1012.2 +12.5 0.5
21 12.02 ЮЗ 4
{12}
4000 м слаб. ливневой дождь 10/10 300 м
[Cb cap]
+7.7 +6.0 89 +4 +4 по сезону 1015.9 1015.4
00 13.02 З 4 20 км {ливн. осадки} 10/10 600 м
[Cb cap]
+7.3 +4.9 85 +4 +4 по сезону 1017.8 1017.3
03 13.02 СЗ 6 20 км 10/5 600 м
[Cb cap Ac und]
+6.8 +3.0 77 +2 +2 по сезону 1019.4 1018.9 +6.0 3
06 13.02 СВ 4
{10}
20 км 10/10 600 м
[Cb cap]
+5.4 +1.9 78 +2 +2 по сезону 1023.5 1022.7 +5.4 6
09 13.02 СВ 7-12
{13}
20 км 10/8 600 м
[Cu Sc Ac lent]
+4.7 +1.4 79 -1 -1 прохладно 1026.1 1025.3
12 13.02 С 8-11
{12}
20 км 8/5 600 м
[Cb cap Ac cast]
+5.5 +2.6 82 -0 0 прохладно 1025.2 1024.7
15 13.02 С 8-10
{11}
20 км 10/4 600 м
[Cu med, cong Ac cast Cs]
+5.6 +0.2 68 0 0 прохладно 1025.8 1025.3
18 13.02 СВ 7-10
{10}
20 км 8/0
[Ac cast Ci fib]
+5.2 +0.3 71 0 0 по сезону 1027.2 1026.7 +6.3
21 13.02 С 7-10
{11}
20 км 9/0
[Ac cast Cc]
+4.5 +0.3 74 -1 -1 прохладно 1027.0 1026.5
00 14.02 СВ 9-13
{13}
20 км 6/3 600 м
[Cu hum Ac cast]
+3.1 -0.1 79 -4 -4 холодно 1027.3 1026.8
03 14.02 СВ 8-12
{13}
20 км ясно +2.0 -1.4 78 -5 -5 холодно 1026.5 1026.0 +1.9
06 14.02 СВ 7-11
{12}
20 км 8/4 600 м
[Cb cap Ac cast Ci fib]
+2.1 -1.3 78 -4 -4 холодно 1026.8 1026.3 +1.9
09 14.02 В 3
{11}
20 км 8/4 600 м
[Cu med, cong Ac cast]
+4.9 -2.2 60 +2 +3 по сезону 1027.5 1026.7
12 14.02 С 5 20 км 4/3 600 м
[Cu med, cong Ac cast]
+6.4 -1.3 58 +3 +3 по сезону 1024.7 1024.0
15 14.02 С 7
{10}
20 км 6/0
[Ac cast Ci fib]
+5.7 -2.6 55 +1 +1 прохладно 1023.2 1022.7
18 14.02 СВ 7-10
{10}
20 км 8/0
[Ci fib]
+2.9 -1.0 75 -3 -3 холодно 1023.8 1023.3 +6.9
21 14.02 СВ 3
{10}
20 км 4/0
[Ci fib]
+0.8 -3.5 73 -3 -3 прохладно 1024.8 1024.0
00 15.02 СВ 3 20 км 8/0
[Ac cast Ci fib]
+1.9 -3.8 66 -2 -2 прохладно 1024.8 1024.0
03 15.02 СВ 9-12
{12}
20 км 6/0
[Ci fib]
+1.9 -0.9 82 -5 -5 холодно 1023.5 1023.0 +1.1
06 15.02 СВ 10-12
{13}
20 км 8/0
[Ac cast]
+2.1 -0.7 82 -5 -5 холодно 1024.4 1023.9 +1.1
09 15.02 СВ 7 50 км 8/3 600 м
[Cu med, cong Ac cast Ci fib]
+4.8 -2.5 59 -0 +1 прохладно 1026.1 1025.3
12 15.02 СВ 10-14
{13}
50 км 4/3 600 м
[Cu med, cong Ci fib]
+6.3 -2.1 55 +1 +1 прохладно 1024.1 1023.6
15 15.02 С 11-15
{16}
20 км 3/0
[Ci fib]
+3.9 -1.6 67 -3 -3 холодно 1024.8 1024.3
18 15.02 СВ 10-13
{17}
20 км ясно +2.7 -5.4 55 -4 -4 холодно 1026.1 1025.6 +6.5
21 15.02 СВ 4-11
{15}
20 км ясно +0.7 -6.2 60 -4 -4 холодно 1027.5 1026.7
00 16.02 СВ 9-12
{12}
20 км ясно +1.7 -2.4 74 -5 -5 холодно 1026.3 1025.8
03 16.02 С 8-11
{12}
20 км ясно +1.9 -2.8 71 -5 -5 холодно 1026.2 1025.7 +1.1
06 16.02 С 8-10
{12}
20 км 8/8 1000 м
[Sc]
+2.5 -1.4 75 -4 -4 холодно 1026.4 1025.9 +1.1
09 16.02 В 4
{10}
20 км 10/10 600 м
[Sc]
+2.3 -1.7 75 -2 -2 холодно 1028.8 1028.0
12 16.02 СВ 4 20 км 10/10 1000 м
[Sc]
+4.2 -0.0 74 0 0 холодно 1027.5 1026.7
15 16.02 СВ 4 20 км 10 баллов +4.5 +0.3 74 0 0 прохладно 1027.5 1026.7
18 16.02 В 3 20 км 10/10 1000 м
[Sc]
+6.2 +2.6 78 +3 +3 по сезону 1026.4 1025.9 +6.4
21 16.02 В 2 20 км 10/4 1000 м
[Sc Ac und]
+5.3 +1.8 78 +3 +3 по сезону 1027.5 1026.7
00 17.02 В 2 20 км 10/0
[Ac und]
+5.5 +2.0 78 +3 +3 по сезону 1027.5 1026.7
03 17.02 СЗ 3 20 км 10/10 1000 м
[Sc]
+6.4 +3.3 81 +3 +3 по сезону 1024.9 1024.4 +4.6
06 17.02 В 1 4000 м дымка 10/10 600 м
[Sc]
+6.0 +3.2 82 +5 +5 по сезону 1026.1 1025.3 +4.8
09 17.02 З 2 4000 м дымка 10/10 600 м
[Sc]
+8.3 +5.2 81 +6 +6 по сезону 1026.0 1025.3
12 17.02 З 3 4000 м дымка 10/10 600 м
[Sc]
+9.5 +6.7 83 +7 +7 по сезону 1023.2 1022.7
15 17.02 З 2 4000 м дымка 10/8 600 м
[Sc Ac und]
+8.9 +6.6 85 +7 +7 по сезону 1021.9 1021.4
18 17.02 З 3 4000 м дымка 10/8 600 м
[Sc Ac und]
+8.3 +6.7 90 +6 +6 по сезону 1021.4 1020.9 +9.9
21 17.02 штиль 0 4000 м дымка 8/0
[Ac cast Ci fib]
+6.5 +5.6 94 +5 +5 по сезону 1022.0 1021.3
00 18.02 штиль 0 20 км 1 балл +5.7 +5.0 95 +5 +5 по сезону 1020.7 1020.0
03 18.02 С 8-10
{10}
20 км 4/0
[Ci fib]
+8.3 +5.3 81 +4 +4 по сезону 1018.6 1018.1 +7.8
06 18.02 СВ 3 20 км 9 баллов +5.7 +4.3 91 +2 +2 по сезону 1020.7 1020.0 +5.4

 

Местоположение метеостанции Севастополь (город Севастополь, Россия): широта 44.62 долгота 33.53 высота над уровнем моря 6 м.

В архиве по умолчанию представлена погода в Севастополе за последнюю неделю. Архивные данные за месяц целиком и за предыдущие месяцы, начиная с января 2011 года, Вы можете получить, выбрав интересующий диапазон дат из раскрывающегося списка и нажав кнопку "Ввод!".


*Определитесь, кто Вы:
робот инопланетянин человек

Внимание! Время в таблицах - всемирное. Для получения местного времени необходимо прибавить поправку, которая равна 3 ч.

Смотрите также архив погоды в соседних городах и на ближайших метеорологических станциях:

Погода в Херсонесском Маяке (город Севастополь, Россия) (13 км)
Погода в Почтовом (Крым, Россия) (41 км)
Погода на Ай-Петри (Крым, Россия) (47 км)
Погода в Ялте (Крым, Россия) (53 км)
Погода в Симферополе (Крым, Россия) (57 км)
Погода в Никитском саду (Крым, Россия) (58 км)
Погода в Симферополе город (Крым, Россия) (59 км)
Погода в Евпатории (Крым, Россия) (64 км)
Погода на Ангарском Перевале (Крым, Россия) (66 км)
Погода в Алуште (Крым, Россия) (69 км)

Пояснения к столбцам:

Ветер - указаны скорость ветра в м/с - средняя за 10 мин, порывы в срок и между сроками (в фигурных скобках) и направление, откуда дует ветер: С - северный, СВ - северо-восточный, В - восточный, ЮВ - юго-восточный, Ю - южный, ЮЗ - юго-западный, З - западный, СЗ - северо-западный.
Видимость - горизонтальная дальность видимости в метрах или километрах. При видимости от 1 до 10 км при отсутствии осадков обычно наблюдается дымка, при ухудшении видимости до 1 км и менее - туман. В сухую погоду видимость может ухудшаться дымом, пылью или мглою.
Явления - указаны атмосферные явления, наблюдавшиеся в срок или в последний час перед сроком; фигурными скобками обозначены явления, наблюдавшиеся между сроками (за 1-3 часа до срока); квадратными скобками обозначены град или гололедные отложения с указанием их диаметра в мм.
Облачность - указаны через наклонную черту общая и нижняя облачность в баллах и высота нижней границы облаков в метрах; квадратными скобками обозначены формы облаков: Ci - перистые, Cs - перисто-слоистые, Cc - перисто-кучевые, Ac - высококучевые, As - высокослоистые, Sc - слоисто-кучевые, Ns - слоисто-дождевые, Cu - кучевые, Cb - кучево-дождевые. Подробнее классификацию облаков см. в Атласе облаков (PDF).
T - Температура воздуха - температура, измеренная на высоте 2 м над землей.
Td - Температура точки росы - температура, при понижении до которой содержащийся в воздухе водяной пар достигнет насыщения.
f - Относительная влажность воздуха - влажноcть воздуха, измеренная на высоте 2 м над землей.
Te - Эффективная температура - температура, которую ощущает одетый по сезону человек в тени. Характеристика душности погоды. При расчете учитывается влияние влажности воздуха и скорости ветра на теплоощущения человека.
Tes - Эффективная температура на солнце - температура, которую ощущает человек, с поправкой на солнечный нагрев. Характеристика знойности погоды. Зависит от высоты солнца над горизонтом, облачности и скорости ветра. Ночью, в пасмурную погоду, а также при ветре 12 м/с и более поправка равна нулю.
P - Атмосферное давление - приведенное к уровню моря атмосферное давление.
Po - Атмосферное давление - измеренное на уровне метеостанции атмосферное давление.
Tmin - Минимальная температура - минимум температуры воздуха на высоте 2 м над землей.
Tmax - Максимальная температура - максимум температуры воздуха на высоте 2 м над землей.
R - Количество осадков - Количество выпавших осадков за период времени, мм. При наведении курсора мыши на число - период времени, за который выпало указанное количество осадков.
R24 - Количество осадков - Количество выпавших осадков за 24 часа, мм.
S - Снежный покров - Высота снежного покрова, см. При наведении курсора мыши на число - состояние снежного покрова и степень покрытия местности в баллах.